THORAD AGENA D DEB

Satellite information

Favourite Embed

Satellite Type and Status

DEBRISIN ORBIT

Key statistics

Satellite THORAD AGENA D DEB at a glance.

Uptime

20338

Days in orbit

Revolutions

≈ 14.3

Per day

Orbit

SSO

Sun Synchronous Orbit

Inclination

99.6

Latest

Satellite identification and parameters

Extended collection of information and parameters for THORAD AGENA D DEB.

Object identification

Identified? True

Debris? True

Object name: THORAD AGENA D DEB

International designator: 1970-025DC

Object number (NORAD): 4754

Object ID (CCSDS): 4754

Country: UNITED STATES OF AMERICA (US)

Current information (Y/N): Y

RCS size: SMALL

Orbital parameters

Period: 100.465 minutes

Inclination: 99.5961 deg

SMA: 7158.76 km

Apoapsis: 790.358 km

Periapsis: 770.892 km

RAAN: 283.5805 deg

Eccentricy: 0.0013596

Argument of periapsis: 80.2261 deg

Mean anomaly: 280.0454 deg

Mean motion: 14.3332965 rev/day

Mean motion (dot): 0.00013891 rev/day2

B* drag term: 0.0050459 1/REarth

Two-line elements (TLE)

Creation date: Dec. 12, 2025, 7:16 a.m.

Reference frame: TEME

Reference center: EARTH

Epoch: Dec. 11, 2025, 7:33 p.m. UTC

TLE line 0: 0 THORAD AGENA D DEB

TLE line 1: 1 4754U 70025DC 25345.81492814 .00013891 00000-0 50459-2 0 9997

TLE line 2: 2 4754 99.5961 283.5805 0013596 80.2261 280.0454 14.33329650806930

Live tracking on map

Real-time ground track for satellite THORAD AGENA D DEB.

In-orbit conjunctions

A list of the most updated potential collisions computed for object THORAD AGENA D DEB.

Target Orbit TCA Probability of collision Miss distance Type
COSMOS 858 LEO 2025-08-13 22:01:44 0.000167622 121.0 (m) PAYLOAD
CZ-4C DEB SSO 2025-07-28 01:02:39 0.0001126023 444.0 (m) DEBRIS
CZ-6A DEB LEO 2024-12-02 07:47:31 0.0007702291 407.0 (m) DEBRIS
FENGYUN 1C DEB SSO 2024-09-27 21:37:35 0.0006055373 385.0 (m) DEBRIS

Associated space launch

Meteorological research and development satellite

THORAD AGENA D DEB was lifted into orbit during the mission ‘Thorad SLV-2G Agena D | Nimbus 4’, on board a Thorad SLV-2G Agena D space rocket.

The launch took place on April 8, 1970, 8:17 a.m. from Space Launch Complex 2E.

For more information about the launch, click the button.

Launch to space Thorad SLV-2G Agena D | Nimbus 4
Thorad SLV-2G Agena D | Nimbus 4

Agency: N/A

Status: Launch Successful

Launch date: April 8, 1970, 8:17 a.m. UTC

Rocket: Thorad SLV-2G Agena D

Launch pad: Space Launch Complex 2E

Location: Vandenberg SFB, CA, USA

...

Latest news about this satellite

There are no fresh news available about this satellite. Check back as we update our databases every day.


Newsletter sign-up

Weekly statistics, charts and insights to help you stay on top of the space industry.